Theta_e
346 358 366 367 367 366 364 362 360 360 361 362 363 364 362 363 365 365 364 361 359 358 356 354 351 350 348 346 345 345 345 345 345 344 343 342 342 344 344 346 344 338 342
351 359 366 367 366 365 364 362 361 362 362 363 364 363 361 362 364 364 363 361 360 358 356 354 352 350 349 347 345 344 344 345 344 344 344 344 344 345 343 342 341 336 338
349 358 362 367 366 364 362 361 361 361 363 365 364 362 361 361 364 364 363 362 360 358 357 355 353 350 348 346 343 341 341 342 344 344 347 334 336 341 339 339 338 337 337
352 356 361 366 365 364 362 361 361 362 364 364 363 361 360 360 363 364 364 363 360 358 357 356 354 352 349 347 344 340 339 338 339 341 339 332 334 339 339 337 338 338 336
347 355 363 366 365 363 363 362 362 363 363 363 362 360 359 360 363 364 364 363 361 358 358 356 355 353 351 346 341 341 341 341 343 344 332 329 330 337 340 338 336 336 336
343 357 363 365 365 364 363 363 363 363 363 363 361 359 359 360 362 364 364 363 362 361 358 357 355 354 353 347 342 341 342 344 345 332 332 336 333 338 338 336 335 335 334
344 357 360 364 365 364 364 363 363 363 362 362 361 360 359 360 362 363 363 363 363 363 360 358 356 355 354 351 345 344 344 344 342 332 333 333 334 339 337 336 336 334 333
354 355 358 363 363 363 363 363 362 362 361 361 360 359 360 360 361 362 362 362 363 362 362 361 359 357 355 353 349 347 347 347 343 334 332 333 339 338 337 335 335 334 332
352 350 354 356 362 363 363 362 361 361 360 360 359 359 360 360 361 361 361 362 361 361 362 361 360 359 357 356 352 349 349 349 343 340 334 333 339 338 336 335 334 333 331
346 345 347 352 353 357 358 362 361 360 360 360 359 358 359 359 360 360 360 360 359 359 360 361 360 358 356 355 355 351 350 350 343 340 337 335 341 339 337 336 334 332 330
343 342 341 342 344 344 347 356 359 359 359 359 357 358 355 349 353 356 355 359 358 358 359 360 360 358 356 356 355 353 351 345 344 343 337 343 342 340 338 336 335 333 330
341 341 341 340 341 341 342 352 351 351 352 351 349 353 348 347 346 350 355 359 358 357 357 358 359 360 357 352 352 354 349 347 347 345 338 344 343 342 340 338 337 334 332
342 343 341 345 344 340 341 349 347 348 348 348 349 351 348 346 350 348 351 349 350 354 349 354 353 353 352 350 350 350 338 338 348 345 342 346 345 344 342 339 338 336 334
343 342 343 348 348 351 347 347 344 345 347 348 350 354 351 350 358 352 349 347 343 345 342 347 348 350 350 350 347 350 344 341 347 345 344 346 347 345 344 341 339 338 336
342 343 343 349 356 359 364 350 345 346 347 349 351 355 354 354 359 356 353 351 344 346 345 345 345 348 349 348 346 347 348 347 347 347 345 347 348 347 345 344 342 339 338
344 347 348 350 359 355 364 369 358 356 354 354 354 354 357 360 362 356 357 356 353 353 350 349 347 345 345 345 345 348 348 349 346 345 348 347 348 347 347 346 344 342 340
350 350 353 354 358 361 363 367 366 358 354 359 357 365 359 361 363 357 357 355 355 354 351 351 352 353 345 349 349 347 346 346 346 350 348 349 347 348 348 348 347 345 343
354 355 356 348 358 361 364 362 361 359 362 355 357 357 359 360 360 364 356 356 356 356 354 350 352 350 350 344 344 344 340 343 345 349 349 348 348 346 347 348 348 348 346
364 360 360 362 355 359 363 362 360 362 360 362 359 357 360 358 358 359 356 355 362 355 352 352 350 351 346 339 345 348 343 343 341 347 348 346 349 345 346 348 348 347 348
362 365 364 364 368 361 359 361 360 354 358 356 355 358 362 357 357 359 356 358 359 355 353 350 349 353 353 350 340 347 342 343 340 338 345 347 349 349 347 346 345 344 347
347 367 367 365 369 368 358 354 354 351 353 354 355 361 363 358 358 359 355 357 360 356 353 355 353 351 350 349 345 343 347 340 339 336 348 345 341 343 344 348 347 344 345
344 350 356 366 369 367 363 363 360 356 356 355 355 356 359 359 360 359 357 356 355 353 356 356 353 349 348 349 341 339 332 337 342 341 344 338 337 341 340 348 346 346 344
343 345 347 351 354 361 366 366 366 364 365 360 355 355 358 359 359 361 359 356 358 355 352 353 353 351 342 344 347 337 330 328 335 342 340 337 342 339 342 345 347 345 345
340 345 349 350 350 349 357 361 362 357 351 353 355 353 355 357 359 358 359 357 356 356 352 354 353 350 348 342 341 342 345 339 329 327 336 341 342 339 339 339 342 344 344
334 338 345 348 352 355 353 354 349 358 353 359 357 355 360 359 358 357 358 358 357 357 353 351 350 350 350 343 342 338 336 340 337 326 320 333 339 340 344 343 342 340 342
329 332 337 340 343 347 350 352 356 352 355 353 354 354 353 358 357 357 357 357 358 355 352 355 352 351 347 348 346 338 335 330 330 328 323 326 331 335 341 341 339 340 339
Wind_Speed
16 15 14 15 16 16 15 15 15 14 13 12 12 12 12 12 14 15 15 15 15 14 15 16 16 17 16 16 14 13 13 13 14 16 17 15 14 14 15 11 15 12 14
19 16 15 14 17 16 15 16 15 13 13 12 12 12 12 12 12 14 14 14 14 15 14 15 15 15 14 14 11 10 9 11 11 13 19 17 13 14 15 15 15 12 13
19 16 16 15 15 18 15 14 15 15 12 13 13 12 11 11 12 12 13 13 13 14 14 14 14 14 13 11 8 6 6 6 7 8 4 10 9 13 13 13 13 13 12
18 14 15 16 16 16 16 14 14 14 13 13 13 12 11 10 11 11 13 13 12 12 12 13 12 12 12 9 4 2 2 2 1 5 6 10 11 12 12 11 12 11 11
17 16 16 15 15 16 16 15 14 13 13 13 13 12 11 10 10 10 11 11 11 11 11 11 11 11 10 6 1 3 4 4 5 3 11 8 7 9 11 10 11 12 12
18 19 17 17 16 16 17 16 14 13 12 12 12 11 11 11 10 10 9 10 10 10 10 9 9 9 7 5 1 3 6 7 9 9 8 12 8 10 10 10 10 10 10
19 18 17 18 17 16 16 15 14 13 12 12 11 11 11 10 9 9 8 7 9 9 9 9 8 7 6 5 3 6 7 8 8 9 8 8 6 9 9 8 8 8 9
21 17 16 16 17 16 15 14 14 12 12 11 11 11 10 10 9 8 7 7 7 9 9 9 8 7 6 5 4 7 10 11 7 9 9 6 8 8 8 7 8 7 7
21 18 13 15 14 15 14 13 13 12 10 10 10 10 9 9 9 8 7 6 5 3 10 9 7 6 6 6 6 7 11 11 8 4 11 7 9 8 7 6 7 6 6
17 17 14 12 14 13 12 14 12 12 11 10 9 10 9 9 9 8 7 7 6 5 4 8 8 7 7 6 6 5 12 13 9 3 7 6 13 10 8 7 6 5 5
15 17 15 15 13 13 13 12 12 13 12 10 9 9 9 7 8 11 11 13 9 7 6 6 8 8 8 7 7 10 11 5 9 3 6 16 15 12 9 8 6 5 4
17 18 16 14 14 14 12 13 9 10 8 8 9 9 7 8 9 10 11 12 10 8 7 7 8 10 9 6 7 10 3 9 9 3 7 17 16 14 12 10 8 6 5
15 13 17 13 13 13 11 9 6 6 6 7 9 9 9 6 7 6 6 6 6 9 6 8 7 7 11 9 8 6 2 10 6 4 9 16 16 15 13 11 10 8 7
17 14 16 14 11 8 9 9 9 8 7 7 8 10 6 4 5 5 7 8 7 7 8 9 8 10 11 10 8 12 10 14 7 3 9 15 12 15 14 13 12 10 8
17 15 15 13 8 5 4 9 8 7 8 9 9 10 7 5 3 4 4 5 8 9 8 7 7 5 5 3 3 6 11 13 9 5 4 14 13 14 15 14 13 12 10
14 12 11 14 11 8 5 3 5 6 6 6 7 9 11 5 5 5 4 3 4 2 3 4 5 5 4 5 6 5 3 3 3 11 6 8 15 17 16 15 14 12 11
11 14 8 12 14 9 7 4 3 5 5 3 4 8 11 7 5 6 4 4 4 4 3 3 3 2 2 5 6 4 2 4 5 9 6 5 9 19 16 15 14 14 14
11 13 10 11 15 11 7 5 4 4 3 6 4 5 10 9 7 4 4 4 4 3 3 4 4 3 3 5 3 6 2 4 5 5 4 8 8 7 12 15 15 16 16
5 10 8 6 11 14 8 6 6 6 5 3 4 6 9 9 9 6 5 5 5 3 4 4 4 4 3 4 6 5 6 5 9 9 3 7 8 9 8 17 19 16 15
7 8 8 6 4 11 9 5 4 7 5 7 7 6 11 9 10 9 7 6 5 3 4 4 5 3 1 3 2 2 5 5 8 3 17 6 9 7 10 10 9 9 16
6 1 8 9 7 5 7 8 8 8 7 6 6 7 9 10 11 8 7 7 5 5 6 6 4 4 3 2 4 3 3 5 5 8 3 0 4 2 6 9 6 5 7
6 4 5 3 5 7 6 5 7 9 8 8 7 8 9 11 10 10 9 7 8 6 7 6 5 3 3 4 3 2 3 2 9 6 3 1 2 4 4 8 8 6 4
7 6 4 4 5 6 7 5 5 5 4 4 7 7 8 10 11 9 10 9 6 8 6 7 5 5 4 4 4 4 2 3 2 3 5 3 5 3 3 6 6 0 5
11 9 7 4 4 4 4 6 8 6 7 6 5 6 9 13 12 12 10 11 10 8 7 5 6 5 5 5 1 3 6 3 2 2 2 3 5 3 3 2 8 7 7
12 10 10 9 8 4 3 3 5 7 7 4 5 7 7 12 14 15 15 13 11 8 8 8 8 7 5 5 4 2 2 4 4 3 2 2 2 4 5 7 8 5 6
11 12 9 10 10 10 11 8 4 6 7 7 8 9 6 9 11 17 16 13 12 10 8 6 6 10 8 6 5 5 4 4 4 3 3 3 5 3 8 8 6 5 4
Wind_Direction
115 122 124 126 128 130 129 125 123 126 122 120 115 105 99 96 97 100 101 103 101 98 95 91 85 83 81 82 83 87 90 95 97 97 91 82 73 60 47 69 71 71 64
126 124 123 130 134 132 130 131 130 128 126 124 120 115 108 105 106 108 109 108 108 106 100 93 89 86 84 82 88 95 101 103 108 113 107 91 65 66 54 59 59 63 58
127 127 130 134 135 129 130 133 134 130 130 129 125 121 115 115 116 117 117 116 114 112 109 103 97 92 88 86 86 96 109 117 125 147 235 91 79 63 59 63 66 60 60
125 138 134 131 132 130 133 136 137 135 136 133 128 126 123 126 127 126 126 123 119 117 114 108 104 100 95 93 88 72 68 55 225 250 254 86 80 71 67 67 59 55 77
132 132 125 130 130 132 133 137 141 141 139 136 134 133 132 132 130 129 127 128 129 125 119 115 113 108 106 106 86 337 343 322 304 330 56 84 87 73 63 52 74 58 52
144 124 134 130 132 138 139 142 144 144 143 141 137 138 139 138 134 131 134 138 138 136 132 127 121 120 117 130 211 281 303 307 315 99 100 78 72 84 74 75 73 65 59
140 128 138 134 138 141 144 146 145 149 145 145 144 145 146 141 137 134 135 141 147 149 145 143 145 146 146 153 239 279 290 301 291 102 91 94 102 105 95 91 74 68 66
120 138 140 137 139 145 148 151 147 150 150 148 149 148 147 141 141 138 144 151 159 170 162 159 163 168 171 180 218 280 301 318 341 109 104 100 130 122 110 104 87 76 65
126 130 145 145 146 145 147 151 150 149 150 152 152 148 148 145 147 150 157 162 168 170 164 162 174 182 190 201 217 270 293 305 310 159 129 130 145 131 125 119 103 92 78
131 135 149 149 153 158 155 153 152 145 153 157 155 149 152 154 160 163 163 171 179 179 172 177 180 192 200 207 214 263 288 300 273 250 105 125 150 150 149 143 126 113 94
144 141 155 160 161 169 159 157 148 157 160 159 160 163 161 183 179 168 201 164 178 186 195 198 195 199 212 216 215 231 261 286 272 201 113 151 157 161 163 161 157 141 125
157 154 156 162 162 174 159 147 170 175 177 184 180 177 208 219 180 188 155 162 170 187 200 219 225 215 216 231 203 216 240 290 272 199 129 162 169 166 173 174 177 168 165
169 153 158 164 164 181 165 150 171 172 186 191 190 173 219 229 169 142 153 172 177 190 202 200 212 226 222 219 225 107 164 280 245 206 158 165 173 175 178 182 186 188 188
159 160 156 158 165 199 139 158 175 182 185 186 196 176 207 235 192 180 172 187 188 181 212 189 206 213 225 232 223 162 174 209 237 103 159 173 187 182 184 190 193 199 197
142 157 164 150 152 175 156 166 177 203 178 188 182 179 202 227 215 195 241 184 207 181 200 196 223 211 234 276 258 183 188 211 153 145 182 166 195 208 193 194 200 205 205
139 142 147 147 146 188 229 186 171 182 185 184 175 180 192 211 226 188 212 230 276 243 260 192 208 202 204 234 259 228 261 316 307 143 168 174 198 216 203 199 202 210 215
133 139 170 157 153 176 201 232 238 208 202 186 206 167 176 201 250 194 211 207 219 237 229 306 313 192 235 264 237 235 285 219 241 155 179 168 187 217 204 205 209 207 215
134 143 159 173 158 168 183 209 220 239 203 212 202 182 173 175 223 218 241 218 228 204 188 215 240 239 216 342 332 305 194 272 253 247 225 144 186 198 208 204 213 215 215
133 137 146 166 166 165 192 194 202 237 224 202 225 210 182 178 194 233 214 257 200 207 215 220 233 219 168 222 263 204 55 49 345 336 12 121 205 207 179 201 206 212 218
146 139 150 169 198 163 169 203 211 220 228 205 221 214 167 186 196 189 234 231 190 189 233 227 231 229 229 210 249 231 119 137 236 92 259 181 209 194 185 168 189 207 216
25 58 155 177 184 195 182 184 207 228 210 223 208 236 165 185 195 198 205 239 194 195 217 228 221 209 237 240 285 294 173 174 245 230 289 347 342 323 126 152 168 189 203
52 34 0 296 207 202 215 212 202 206 224 210 206 213 199 184 191 197 202 231 195 205 223 234 215 253 247 195 226 241 288 196 211 239 266 185 33 7 314 151 172 183 187
74 62 45 349 320 316 230 234 230 248 260 229 208 198 192 186 191 198 193 213 221 201 213 202 201 193 235 263 161 144 268 231 234 186 212 209 150 208 302 116 172 24 112
92 71 77 59 0 305 274 274 258 240 230 253 247 213 190 187 190 199 208 198 222 207 212 188 178 189 193 239 58 223 236 145 356 124 214 191 165 176 176 97 89 70 65
100 77 69 43 36 58 323 249 309 267 272 279 257 237 213 189 195 198 199 208 207 218 194 192 181 181 191 207 188 211 225 223 203 158 231 150 235 204 174 90 85 79 66
88 99 68 59 35 32 33 23 339 329 320 305 310 319 280 193 201 205 197 196 208 203 210 203 187 180 191 199 180 219 209 172 206 175 205 206 191 159 99 99 93 80 78